Eastover, SC

4:22 AM EDT on March 27, 2017 (GMT -0400)
McEntire Angs

Weather History for KMMT - September, 2013

Change the Weather History Date:

Wednesday, September 4, 2013

  Actual Average Record
Temperature  
Mean Temperature 80 °F -  
Max Temperature 91 °F 84 °F 94 °F (2014)
Min Temperature 69 °F 66 °F 57 °F (1997)
Cooling Degree Days 15    
Growing Degree Days 30 (Base 50)    
Moisture  
Dew Point 71 °F    
Average Humidity 87    
Maximum Humidity 100    
Minimum Humidity 46    
Precipitation  
Precipitation 0.00 in - - ()
Sea Level Pressure  
Sea Level Pressure 30.01 in    
Wind  
Wind Speed 2 mph (NNE)    
Max Wind Speed 6 mph    
Max Gust Speed -    
Visibility 6 miles    
Events Fog    
Averages and records for this station are not official NWS values.
T = Trace of Precipitation, MM = Missing Value Source: NWS Daily Summary

Daily Weather History Graph

Daily Weather History Graph

Search for Another Location

Airport or City:

Trip Planner

Search our weather history database for the weather conditions in past years. The results will help you decide how hot, cold, wet, or windy it might be!

Date:

Astronomy

Sep. 04, 2013 Rise Set
Actual Time 6:59 AM EDT 7:44 PM EDT
Civil Twilight 6:33 AM EDT 8:09 PM EDT
Nautical Twilight 6:03 AM EDT 8:39 PM EDT
Astronomical Twilight 5:33 AM EDT 9:10 PM EDT
Moon 6:09 AM EDT (9/4) 7:05 PM EDT (9/4)
Length of Visible Light 13h 36m
Length of Day
12h 45m
Waning Crescent, 1% of the Moon is Illuminated
Sep 4
Waning Crescent
Sep 5
New
Sep 12
First Quarter
Sep 19
Full
Sep 26
Last Quarter

Hourly Weather History & Observations

Time (EDT) Temp. Heat Index Dew Point Humidity Pressure Visibility Wind Dir Wind Speed Gust Speed Precip Events Conditions
12:38 AM 71.6 °F - 71.6 °F 100% 29.96 in 2.5 mi Calm Calm - N/A   Clear
12:48 AM 71.6 °F - 71.6 °F 100% 29.96 in 3.0 mi Calm Calm - N/A   Clear
12:58 AM 71.6 °F - 71.6 °F 100% 29.96 in 5.0 mi NNW 1.2 mph - 0.00 in   Clear
1:38 AM 71.6 °F - 71.6 °F 100% 29.97 in 1.2 mi SSW 1.2 mph - N/A   Clear
1:58 AM 71.6 °F - 71.6 °F 100% 29.96 in 4.0 mi Calm Calm - N/A   Clear
2:18 AM 69.8 °F - 69.8 °F 100% 29.96 in 2.5 mi NNW 3.5 mph - N/A   Clear
2:28 AM 71.6 °F - 71.6 °F 100% 29.96 in 6.0 mi North 4.6 mph - N/A   Clear
2:58 AM 71.4 °F - 71.4 °F 100% 29.96 in 9.0 mi NNW 2.3 mph - N/A   Clear
3:58 AM 71.4 °F - 71.4 °F 100% 29.97 in 6.0 mi SE 3.5 mph - N/A   Clear
4:08 AM 69.8 °F - 69.8 °F 100% 29.97 in 1.8 mi SSE 3.5 mph - N/A   Clear
4:18 AM 69.8 °F - 69.8 °F 100% 29.98 in 5.0 mi South 3.5 mph - N/A   Clear
4:38 AM 69.8 °F - 69.8 °F 100% 29.99 in 2.5 mi Calm Calm - N/A   Partly Cloudy
4:48 AM 71.6 °F - 71.6 °F 100% 29.99 in 1.8 mi NNE 1.2 mph - N/A   Scattered Clouds
4:58 AM 70.3 °F - 70.3 °F 100% 29.99 in 1.5 mi Calm Calm - N/A   Scattered Clouds
5:08 AM 69.8 °F - 69.8 °F 100% 29.98 in 0.8 mi NNW 1.2 mph - N/A   Mist
5:18 AM 69.8 °F - 69.8 °F 100% 29.99 in 2.0 mi North 3.5 mph - N/A   Clear
5:28 AM 69.8 °F - 69.8 °F 100% 29.99 in 3.0 mi North 4.6 mph - N/A   Clear
5:38 AM 69.8 °F - 69.8 °F 100% 29.99 in 2.5 mi North 3.5 mph - N/A   Clear
5:48 AM 69.8 °F - 69.8 °F 100% 29.99 in 4.0 mi North 1.2 mph - N/A   Clear
5:58 AM 70.0 °F - 70.0 °F 100% 29.99 in 3.0 mi North 1.2 mph - N/A   Clear
6:58 AM 71.4 °F - 68.5 °F 91% 30.00 in 10.0 mi NNE 4.6 mph - N/A Fog Patches of Fog
7:58 AM 72.3 °F - 67.1 °F 84% 30.04 in 10.0 mi NE 5.8 mph - N/A   Clear
8:58 AM 75.7 °F - 67.3 °F 75% 30.05 in 10.0 mi ENE 5.8 mph - N/A   Partly Cloudy
9:58 AM 79.5 °F - 67.3 °F 66% 30.06 in 10.0 mi NE 5.8 mph - N/A   Clear
10:58 AM 82.0 °F 85.3 °F 68.9 °F 64% 30.07 in 10.0 mi Variable 3.5 mph - N/A   Partly Cloudy
11:58 AM 85.1 °F 89.8 °F 70.3 °F 61% 30.07 in 10.0 mi Calm Calm - N/A   Partly Cloudy
12:58 PM 87.1 °F 92.8 °F 71.1 °F 59% 30.06 in 10.0 mi Variable 2.3 mph - N/A   Partly Cloudy
1:58 PM 89.4 °F 96.3 °F 72.0 °F 56% 30.05 in 10.0 mi Calm Calm - N/A   Scattered Clouds
2:58 PM 89.8 °F 96.5 °F 71.6 °F 55% 30.04 in 10.0 mi Variable 2.3 mph - N/A   Scattered Clouds
3:58 PM 91.9 °F 96.4 °F 68.4 °F 46% 30.03 in 10.0 mi Calm Calm - N/A   Scattered Clouds
4:58 PM 88.9 °F 94.7 °F 70.7 °F 55% 30.02 in 10.0 mi ENE 4.6 mph - N/A   Mostly Cloudy
5:58 PM 86.4 °F 92.6 °F 71.8 °F 62% 30.01 in 10.0 mi ENE 3.5 mph - N/A   Mostly Cloudy
6:58 PM 83.3 °F 88.7 °F 72.3 °F 69% 30.02 in 10.0 mi South 5.8 mph - N/A   Scattered Clouds
7:58 PM 77.4 °F - 72.1 °F 84% 30.04 in 10.0 mi ENE 2.3 mph - N/A   Scattered Clouds
8:58 PM 74.8 °F - 73.0 °F 94% 30.05 in 10.0 mi Calm Calm - N/A   Scattered Clouds
9:58 PM 74.1 °F - 73.2 °F 97% 30.07 in 10.0 mi Calm Calm - N/A   Scattered Clouds
10:58 PM 72.5 °F - 72.0 °F 98% 30.08 in 9.0 mi Variable 1.2 mph - N/A   Scattered Clouds
11:58 PM 72.5 °F - 72.1 °F 99% 30.09 in 8.0 mi ESE 3.5 mph - N/A   Clear